Regional Weather Roundup
Issued by NWS

Home | Current Version | Previous Version | Graphics & Text | Print | Product List | Glossary On
Versions: 1 2 3 4 5 6 7 8 9 10 11 12 13 14 15 16 17 18 19 20 21 22 23 24 25 26 27 28 29 30 31 32 33 34 35 36 37 38 39 40 41 42 43 44 45 46 47 48 49 50
000
ASUS45 KSLC 220410
RWRUT

UTAH REGIONAL WEATHER ROUNDUP
NATIONAL WEATHER SERVICE SALT LAKE CITY UT
1000 PM MDT THU MAY 21 2015

UTZ001>011-023>025-220500-

NORTHERN UTAH

CITY           SKY/WX    TMP DP  RH WIND       PRES   REMARKS
BRIGHAM CITY   CLOUDY    57  45  65 N6        29.92S
HILL AFB       CLOUDY    57  42  55 E7        29.91S
LOGAN          PTCLDY    53  44  71 SE7       29.92S
OGDEN          CLOUDY    58  45  62 SE8       29.90S
PROVO AIRPORT  MOCLDY    54  39  58 N6        29.90S
SALT LAKE CITY CLOUDY    60  45  57 CALM      29.88F
VERNAL         TSTM      56  45  66 E10       29.92R
WENDOVER       CLOUDY    54  45  71 NW10      29.89F
HEBER CITY     MOCLDY    43  41  93 SE5       29.97S
WEST JORDAN    CLOUDY    55  46  71 CALM      29.91S

$$

UTZ012>022-026-027-220500-

SOUTHERN/CENTRAL UTAH

CITY           SKY/WX    TMP DP  RH WIND       PRES   REMARKS
BLANDING       CLOUDY    62  31  30 S12G39    30.00R
BRYCE CANYON   CLOUDY    44  33  65 W3        30.01R
CEDAR CITY     MOCLDY    50  29  44 S5        29.92R
DELTA          CLOUDY    59  40  49 N8        29.88R
HANKSVILLE     CLOUDY    66  30  26 E7        29.84R
MILFORD        MOCLDY    56  26  31 SE3       29.88
MOAB/CYNLANDS  CLEAR     63  37  38 E12       29.83R
PRICE          CLOUDY    60  31  33 NW8       29.91R
ST GEORGE      MOCLDY    70  25  18 CALM      29.81R
KANAB          PTCLDY    54  28  37 CALM      29.93R

$$

REGIONAL REPORTS     COLORADO/ARIZONA

CITY           SKY/WX    TMP DP  RH WIND       PRES   REMARKS
CRAIG, CO      CLOUDY    52  40  63 E12       29.99S
GRAND JUNCTION MOCLDY    55  43  63 CALM      29.88S
RIFLE          LGT RAIN  56  43  61 E8        29.96R
MONTROSE       MOCLDY    54  40  59 W8        29.96S
CORTEZ         LGT RAIN  56  41  57 S20G28    30.00R
PAGE, AZ       NOT AVBL
GRAND CANYON   CLEAR     38  34  85 CALM      30.00R
KINGMAN        CLEAR     63  21  20 S12       29.84R
FLAGSTAFF      CLEAR     44  28  53 CALM      30.02R

$$

REGIONAL REPORTS    NEVADA/IDAHO/WYOMING

CITY           SKY/WX    TMP DP  RH WIND       PRES   REMARKS
LAS VEGAS, NV  MOCLDY    73  34  23 S8        29.72S
ELY            MOCLDY    47  38  71 E5        29.94R
ELKO           CLOUDY    54  43  66 W7        29.92R THUNDER
POCATELLO, ID  CLOUDY    54  49  83 SE6       29.93F
BURLEY         CLOUDY    56  44  64 CALM      29.89S
EVANSTON, WY   LGT RAIN  41  39  93 N7        30.04F
ROCK SPRINGS   CLOUDY    45  40  82 E6        30.04R
KEMMERER       CLOUDY    41  37  87 CALM      30.06R

$$



USA.gov is the U.S. government's official web portal to all federal, state and local government web resources and services.